owner,sensor,date,latitude,longitude,vertical_datum,sea_water_practical_salinity,qcFlag 
SCCF RECON,ioos:station:SCCF:11:1,2017-11-01T04:00:00Z,26.4679,-82.0631,2.11,24.6,1111122 
SCCF RECON,ioos:station:SCCF:11:1,2017-11-01T05:00:00Z,26.4679,-82.0631,2.04,23.34,1111122 
SCCF RECON,ioos:station:SCCF:11:1,2017-11-01T06:00:00Z,26.4679,-82.0631,1.892,20.04,1111122 
SCCF RECON,ioos:station:SCCF:11:1,2017-11-01T07:00:00Z,26.4679,-82.0631,1.761,20.57,1111122 
SCCF RECON,ioos:station:SCCF:11:1,2017-11-01T08:00:00Z,26.4679,-82.0631,1.651,20.8,1111122 
SCCF RECON,ioos:station:SCCF:11:1,2017-11-01T09:00:00Z,26.4679,-82.0631,1.58,20.86,1111122 
SCCF RECON,ioos:station:SCCF:11:1,2017-11-01T10:00:00Z,26.4679,-82.0631,1.562,20.59,1111122 
SCCF RECON,ioos:station:SCCF:11:1,2017-11-01T11:00:00Z,26.4679,-82.0631,1.649,20.69,1111122 
SCCF RECON,ioos:station:SCCF:11:1,2017-11-01T12:00:00Z,26.4679,-82.0631,1.81,21.53,1111122 
SCCF RECON,ioos:station:SCCF:11:1,2017-11-01T13:00:00Z,26.4679,-82.0631,1.97,17.32,1111122 
SCCF RECON,ioos:station:SCCF:11:1,2017-11-01T14:00:00Z,26.4679,-82.0631,2.08,18.37,1111122 
SCCF RECON,ioos:station:SCCF:11:1,2017-11-01T15:00:00Z,26.4679,-82.0631,2.159,21.64,1111122 
SCCF RECON,ioos:station:SCCF:11:1,2017-11-01T16:00:00Z,26.4679,-82.0631,2.19,23.18,1111122 
SCCF RECON,ioos:station:SCCF:11:1,2017-11-01T17:00:00Z,26.4679,-82.0631,2.143,23.37,1111122 
SCCF RECON,ioos:station:SCCF:11:1,2017-11-01T18:00:00Z,26.4679,-82.0631,2.021,20.52,1111122 
SCCF RECON,ioos:station:SCCF:11:1,2017-11-01T19:00:00Z,26.4679,-82.0631,1.883,19.59,1111122 
SCCF RECON,ioos:station:SCCF:11:1,2017-11-01T20:00:00Z,26.4679,-82.0631,1.795,19.93,1111122 
SCCF RECON,ioos:station:SCCF:11:1,2017-11-01T21:00:00Z,26.4679,-82.0631,1.749,20.71,1111122 
SCCF RECON,ioos:station:SCCF:11:1,2017-11-01T22:00:00Z,26.4679,-82.0631,1.737,20.55,1111122 
SCCF RECON,ioos:station:SCCF:11:1,2017-11-02T04:00:00Z,26.4679,-82.0631,2.33,24.83,1111122 
SCCF RECON,ioos:station:SCCF:11:1,2017-11-02T05:00:00Z,26.4679,-82.0631,2.29,25.09,1111122 
SCCF RECON,ioos:station:SCCF:11:1,2017-11-02T06:00:00Z,26.4679,-82.0631,2.14,20.69,1111122 
SCCF RECON,ioos:station:SCCF:11:1,2017-11-02T07:00:00Z,26.4679,-82.0631,1.977,20.69,1111122 
SCCF RECON,ioos:station:SCCF:11:1,2017-11-02T08:00:00Z,26.4679,-82.0631,1.84,20.66,1111122 
SCCF RECON,ioos:station:SCCF:11:1,2017-11-02T09:00:00Z,26.4679,-82.0631,1.73,20.61,1111122 
SCCF RECON,ioos:station:SCCF:11:1,2017-11-02T10:00:00Z,26.4679,-82.0631,1.632,20.58,1111122 
SCCF RECON,ioos:station:SCCF:11:1,2017-11-02T11:00:00Z,26.4679,-82.0631,1.62,20.66,1111122 
SCCF RECON,ioos:station:SCCF:11:1,2017-11-02T12:00:00Z,26.4679,-82.0631,1.752,20.98,1111122 
SCCF RECON,ioos:station:SCCF:11:1,2017-11-02T13:00:00Z,26.4679,-82.0631,1.964,21.71,1111122 
SCCF RECON,ioos:station:SCCF:11:1,2017-11-02T14:00:00Z,26.4679,-82.0631,2.113,19.54,1111122 
SCCF RECON,ioos:station:SCCF:11:1,2017-11-02T15:00:00Z,26.4679,-82.0631,2.213,21.39,1111122 
SCCF RECON,ioos:station:SCCF:11:1,2017-11-02T16:00:00Z,26.4679,-82.0631,2.293,22.96,1111122 
SCCF RECON,ioos:station:SCCF:11:1,2017-11-02T17:00:00Z,26.4679,-82.0631,2.276,23.07,1111122 
SCCF RECON,ioos:station:SCCF:11:1,2017-11-02T18:00:00Z,26.4679,-82.0631,2.177,21.87,1111122 
SCCF RECON,ioos:station:SCCF:11:1,2017-11-02T19:00:00Z,26.4679,-82.0631,2.016,20.47,1111122 
SCCF RECON,ioos:station:SCCF:11:1,2017-11-02T20:00:00Z,26.4679,-82.0631,1.881,20.82,1111122 
SCCF RECON,ioos:station:SCCF:11:1,2017-11-02T21:00:00Z,26.4679,-82.0631,1.8,20.79,1111122 
SCCF RECON,ioos:station:SCCF:11:1,2017-11-02T22:00:00Z,26.4679,-82.0631,1.736,20.69,1111122 
SCCF RECON,ioos:station:SCCF:11:1,2017-11-03T04:00:00Z,26.4679,-82.0631,2.21,21.49,1111122 
SCCF RECON,ioos:station:SCCF:11:1,2017-11-03T05:00:00Z,26.4679,-82.0631,2.21,22.0,1111122 
SCCF RECON,ioos:station:SCCF:11:1,2017-11-03T06:00:00Z,26.4679,-82.0631,2.118,20.88,1111122 
SCCF RECON,ioos:station:SCCF:11:1,2017-11-03T07:00:00Z,26.4679,-82.0631,1.95,19.94,1111122 
SCCF RECON,ioos:station:SCCF:11:1,2017-11-03T08:00:00Z,26.4679,-82.0631,1.782,20.34,1111122 
SCCF RECON,ioos:station:SCCF:11:1,2017-11-03T09:00:00Z,26.4679,-82.0631,1.63,20.57,1111122 
SCCF RECON,ioos:station:SCCF:11:1,2017-11-03T10:00:00Z,26.4679,-82.0631,1.505,20.6,1111122 
SCCF RECON,ioos:station:SCCF:11:1,2017-11-03T11:00:00Z,26.4679,-82.0631,1.407,20.62,1111122 
SCCF RECON,ioos:station:SCCF:11:1,2017-11-03T12:00:00Z,26.4679,-82.0631,1.43,20.54,1111122 
SCCF RECON,ioos:station:SCCF:11:1,2017-11-03T13:00:00Z,26.4679,-82.0631,1.611,21.45,1111122 
SCCF RECON,ioos:station:SCCF:11:1,2017-11-03T14:00:00Z,26.4679,-82.0631,1.838,16.32,1111122 
SCCF RECON,ioos:station:SCCF:11:1,2017-11-03T15:00:00Z,26.4679,-82.0631,1.992,17.06,1111122 
SCCF RECON,ioos:station:SCCF:11:1,2017-11-03T16:00:00Z,26.4679,-82.0631,2.102,17.9,1111122 
SCCF RECON,ioos:station:SCCF:11:1,2017-11-03T17:00:00Z,26.4679,-82.0631,2.18,19.53,1111122 
SCCF RECON,ioos:station:SCCF:11:1,2017-11-03T18:00:00Z,26.4679,-82.0631,2.171,21.83,1111122 
SCCF RECON,ioos:station:SCCF:11:1,2017-11-03T19:00:00Z,26.4679,-82.0631,2.087,20.82,1111122 
SCCF RECON,ioos:station:SCCF:11:1,2017-11-03T20:00:00Z,26.4679,-82.0631,1.958,18.63,1111122 
SCCF RECON,ioos:station:SCCF:11:1,2017-11-03T21:00:00Z,26.4679,-82.0631,1.846,19.12,1111122 
SCCF RECON,ioos:station:SCCF:11:1,2017-11-03T22:00:00Z,26.4679,-82.0631,1.783,19.96,1111122 
SCCF RECON,ioos:station:SCCF:11:1,2017-11-04T04:00:00Z,26.4679,-82.0631,2.233,20.86,1111122 
SCCF RECON,ioos:station:SCCF:11:1,2017-11-04T05:00:00Z,26.4679,-82.0631,2.25,20.59,1111122 
SCCF RECON,ioos:station:SCCF:11:1,2017-11-04T06:00:00Z,26.4679,-82.0631,2.2,22.83,1111122 
SCCF RECON,ioos:station:SCCF:11:1,2017-11-04T07:00:00Z,26.4679,-82.0631,2.067,19.18,1111122 
SCCF RECON,ioos:station:SCCF:11:1,2017-11-04T08:00:00Z,26.4679,-82.0631,1.89,19.41,1111122 
SCCF RECON,ioos:station:SCCF:11:1,2017-11-04T09:00:00Z,26.4679,-82.0631,1.712,19.81,1111122 
SCCF RECON,ioos:station:SCCF:11:1,2017-11-04T10:00:00Z,26.4679,-82.0631,1.564,19.88,1111122 
SCCF RECON,ioos:station:SCCF:11:1,2017-11-04T11:00:00Z,26.4679,-82.0631,1.435,19.94,1111122 
SCCF RECON,ioos:station:SCCF:11:1,2017-11-04T12:00:00Z,26.4679,-82.0631,1.353,20.02,1111122 
SCCF RECON,ioos:station:SCCF:11:1,2017-11-04T13:00:00Z,26.4679,-82.0631,1.411,19.33,1111122 
SCCF RECON,ioos:station:SCCF:11:1,2017-11-04T14:00:00Z,26.4679,-82.0631,1.623,19.89,1111122 
SCCF RECON,ioos:station:SCCF:11:1,2017-11-04T15:00:00Z,26.4679,-82.0631,1.834,15.75,1111122 
SCCF RECON,ioos:station:SCCF:11:1,2017-11-04T16:00:00Z,26.4679,-82.0631,1.983,17.11,1111122 
SCCF RECON,ioos:station:SCCF:11:1,2017-11-04T17:00:00Z,26.4679,-82.0631,2.088,17.43,1111122 
SCCF RECON,ioos:station:SCCF:11:1,2017-11-04T18:00:00Z,26.4679,-82.0631,2.162,20.82,1111122 
SCCF RECON,ioos:station:SCCF:11:1,2017-11-04T19:00:00Z,26.4679,-82.0631,2.146,22.69,1111122 
SCCF RECON,ioos:station:SCCF:11:1,2017-11-04T20:00:00Z,26.4679,-82.0631,2.06,18.94,1111122 
SCCF RECON,ioos:station:SCCF:11:1,2017-11-04T21:00:00Z,26.4679,-82.0631,1.932,18.15,1111122 
SCCF RECON,ioos:station:SCCF:11:1,2017-11-04T22:00:00Z,26.4679,-82.0631,1.871,18.27,1111122 
SCCF RECON,ioos:station:SCCF:11:1,2017-11-05T04:00:00Z,26.4679,-82.0631,2.26,20.73,1111122 
SCCF RECON,ioos:station:SCCF:11:1,2017-11-05T05:00:00Z,26.4679,-82.0631,2.31,21.48,1111122 
SCCF RECON,ioos:station:SCCF:11:1,2017-11-05T06:00:00Z,26.4679,-82.0631,2.32,23.8,1111122 
SCCF RECON,ioos:station:SCCF:11:1,2017-11-05T07:00:00Z,26.4679,-82.0631,2.24,22.64,1111122 
SCCF RECON,ioos:station:SCCF:11:1,2017-11-05T08:00:00Z,26.4679,-82.0631,2.07,19.16,1111122 
SCCF RECON,ioos:station:SCCF:11:1,2017-11-05T09:00:00Z,26.4679,-82.0631,1.895,19.36,1111122 
SCCF RECON,ioos:station:SCCF:11:1,2017-11-05T10:00:00Z,26.4679,-82.0631,1.731,19.35,1111122 
SCCF RECON,ioos:station:SCCF:11:1,2017-11-05T11:00:00Z,26.4679,-82.0631,1.575,19.36,1111122 
SCCF RECON,ioos:station:SCCF:11:1,2017-11-05T12:00:00Z,26.4679,-82.0631,1.444,19.36,1111122 
SCCF RECON,ioos:station:SCCF:11:1,2017-11-05T13:00:00Z,26.4679,-82.0631,1.384,19.36,1111122 
SCCF RECON,ioos:station:SCCF:11:1,2017-11-05T14:00:00Z,26.4679,-82.0631,1.479,19.13,1111122 
SCCF RECON,ioos:station:SCCF:11:1,2017-11-05T15:00:00Z,26.4679,-82.0631,1.7,20.43,1111122 
SCCF RECON,ioos:station:SCCF:11:1,2017-11-05T16:00:00Z,26.4679,-82.0631,1.897,16.94,1111122 
SCCF RECON,ioos:station:SCCF:11:1,2017-11-05T17:00:00Z,26.4679,-82.0631,2.042,17.62,1111122 
SCCF RECON,ioos:station:SCCF:11:1,2017-11-05T18:00:00Z,26.4679,-82.0631,2.153,18.83,1111122 
SCCF RECON,ioos:station:SCCF:11:1,2017-11-05T19:00:00Z,26.4679,-82.0631,2.209,22.24,1111122 
SCCF RECON,ioos:station:SCCF:11:1,2017-11-05T20:00:00Z,26.4679,-82.0631,2.177,24.52,1111122 
SCCF RECON,ioos:station:SCCF:11:1,2017-11-05T21:00:00Z,26.4679,-82.0631,2.071,18.71,1111122 
SCCF RECON,ioos:station:SCCF:11:1,2017-11-05T22:00:00Z,26.4679,-82.0631,1.976,18.61,1111122 
SCCF RECON,ioos:station:SCCF:11:1,2017-11-06T05:00:00Z,26.4679,-82.0631,2.349,24.55,1111122 
SCCF RECON,ioos:station:SCCF:11:1,2017-11-06T06:00:00Z,26.4679,-82.0631,2.36,24.09,1111122 
SCCF RECON,ioos:station:SCCF:11:1,2017-11-06T07:00:00Z,26.4679,-82.0631,2.34,25.87,1111122 
SCCF RECON,ioos:station:SCCF:11:1,2017-11-06T08:00:00Z,26.4679,-82.0631,2.23,20.27,1111122 
SCCF RECON,ioos:station:SCCF:11:1,2017-11-06T09:00:00Z,26.4679,-82.0631,2.05,19.48,1111122 
SCCF RECON,ioos:station:SCCF:11:1,2017-11-06T10:00:00Z,26.4679,-82.0631,1.863,19.34,1111122 
SCCF RECON,ioos:station:SCCF:11:1,2017-11-06T11:00:00Z,26.4679,-82.0631,1.703,19.32,1111122 
SCCF RECON,ioos:station:SCCF:11:1,2017-11-06T12:00:00Z,26.4679,-82.0631,1.551,19.29,1111122 
SCCF RECON,ioos:station:SCCF:11:1,2017-11-06T13:00:00Z,26.4679,-82.0631,1.431,19.26,1111122 
SCCF RECON,ioos:station:SCCF:11:1,2017-11-06T14:00:00Z,26.4679,-82.0631,1.389,19.24,1111122 
SCCF RECON,ioos:station:SCCF:11:1,2017-11-06T15:00:00Z,26.4679,-82.0631,1.502,20.47,1111122 
SCCF RECON,ioos:station:SCCF:11:1,2017-11-06T16:00:00Z,26.4679,-82.0631,1.72,21.2,1111122 
SCCF RECON,ioos:station:SCCF:11:1,2017-11-06T17:00:00Z,26.4679,-82.0631,1.891,18.87,1111122 
SCCF RECON,ioos:station:SCCF:11:1,2017-11-06T18:00:00Z,26.4679,-82.0631,1.99,18.84,1111122 
SCCF RECON,ioos:station:SCCF:11:1,2017-11-06T19:00:00Z,26.4679,-82.0631,2.075,19.58,1111122 
SCCF RECON,ioos:station:SCCF:11:1,2017-11-06T20:00:00Z,26.4679,-82.0631,2.116,21.32,1111122 
SCCF RECON,ioos:station:SCCF:11:1,2017-11-06T21:00:00Z,26.4679,-82.0631,2.089,22.85,1111122 
SCCF RECON,ioos:station:SCCF:11:1,2017-11-06T22:00:00Z,26.4679,-82.0631,2.005,19.67,1111122 
SCCF RECON,ioos:station:SCCF:11:1,2017-11-07T05:00:00Z,26.4679,-82.0631,2.22,21.77,1111122 
SCCF RECON,ioos:station:SCCF:11:1,2017-11-07T06:00:00Z,26.4679,-82.0631,2.28,23.88,1111122 
SCCF RECON,ioos:station:SCCF:11:1,2017-11-07T07:00:00Z,26.4679,-82.0631,2.27,23.7,1111122 
SCCF RECON,ioos:station:SCCF:11:1,2017-11-07T08:00:00Z,26.4679,-82.0631,2.22,21.99,1111122 
SCCF RECON,ioos:station:SCCF:11:1,2017-11-07T09:00:00Z,26.4679,-82.0631,2.106,19.9,1111122 
SCCF RECON,ioos:station:SCCF:11:1,2017-11-07T10:00:00Z,26.4679,-82.0631,1.95,19.73,1111122 
SCCF RECON,ioos:station:SCCF:11:1,2017-11-07T11:00:00Z,26.4679,-82.0631,1.78,19.59,1111122 
SCCF RECON,ioos:station:SCCF:11:1,2017-11-07T12:00:00Z,26.4679,-82.0631,1.641,19.57,1111122 
SCCF RECON,ioos:station:SCCF:11:1,2017-11-07T13:00:00Z,26.4679,-82.0631,1.503,19.65,1111122 
SCCF RECON,ioos:station:SCCF:11:1,2017-11-07T14:00:00Z,26.4679,-82.0631,1.39,19.58,1111122 
SCCF RECON,ioos:station:SCCF:11:1,2017-11-07T17:00:00Z,26.4679,-82.0631,1.72,19.34,1111122 
SCCF RECON,ioos:station:SCCF:11:1,2017-11-07T19:00:00Z,26.4679,-82.0631,1.98,18.89,1111122 
SCCF RECON,ioos:station:SCCF:11:1,2017-11-07T20:00:00Z,26.4679,-82.0631,2.07,19.62,1111122 
SCCF RECON,ioos:station:SCCF:11:1,2017-11-07T22:00:00Z,26.4679,-82.0631,2.095,19.26,1111122 
SCCF RECON,ioos:station:SCCF:11:1,2017-11-07T23:00:00Z,26.4679,-82.0631,2.026,19.47,1111122 
SCCF RECON,ioos:station:SCCF:11:1,2017-11-08T06:00:00Z,26.4679,-82.0631,2.23,20.0,1111122 
SCCF RECON,ioos:station:SCCF:11:1,2017-11-08T07:00:00Z,26.4679,-82.0631,2.27,21.26,1111122 
SCCF RECON,ioos:station:SCCF:11:1,2017-11-08T08:00:00Z,26.4679,-82.0631,2.269,23.48,1111122 
SCCF RECON,ioos:station:SCCF:11:1,2017-11-08T09:00:00Z,26.4679,-82.0631,2.21,21.05,1111122 
SCCF RECON,ioos:station:SCCF:11:1,2017-11-08T10:00:00Z,26.4679,-82.0631,2.093,19.87,1111122 
SCCF RECON,ioos:station:SCCF:11:1,2017-11-08T11:00:00Z,26.4679,-82.0631,1.94,19.77,1111122 
SCCF RECON,ioos:station:SCCF:11:1,2017-11-08T12:00:00Z,26.4679,-82.0631,1.79,19.73,1111122 
SCCF RECON,ioos:station:SCCF:11:1,2017-11-08T13:00:00Z,26.4679,-82.0631,1.657,19.71,1111122 
SCCF RECON,ioos:station:SCCF:11:1,2017-11-08T14:00:00Z,26.4679,-82.0631,1.53,19.73,1111122 
SCCF RECON,ioos:station:SCCF:11:1,2017-11-08T15:00:00Z,26.4679,-82.0631,1.444,19.75,1111122 
SCCF RECON,ioos:station:SCCF:11:1,2017-11-08T16:00:00Z,26.4679,-82.0631,1.439,19.89,1111122 
SCCF RECON,ioos:station:SCCF:11:1,2017-11-08T17:00:00Z,26.4679,-82.0631,1.551,21.21,1111122 
SCCF RECON,ioos:station:SCCF:11:1,2017-11-08T18:00:00Z,26.4679,-82.0631,1.71,19.92,1111122 
SCCF RECON,ioos:station:SCCF:11:1,2017-11-08T19:00:00Z,26.4679,-82.0631,1.84,18.64,1111122 
SCCF RECON,ioos:station:SCCF:11:1,2017-11-08T20:00:00Z,26.4679,-82.0631,1.94,18.73,1111122 
SCCF RECON,ioos:station:SCCF:11:1,2017-11-08T21:00:00Z,26.4679,-82.0631,2.03,20.46,1111122 
SCCF RECON,ioos:station:SCCF:11:1,2017-11-08T22:00:00Z,26.4679,-82.0631,2.078,21.13,1111122 
SCCF RECON,ioos:station:SCCF:11:1,2017-11-09T05:00:00Z,26.4679,-82.0631,2.07,18.75,1111122 
SCCF RECON,ioos:station:SCCF:11:1,2017-11-09T06:00:00Z,26.4679,-82.0631,2.13,21.62,1111122 
SCCF RECON,ioos:station:SCCF:11:1,2017-11-09T07:00:00Z,26.4679,-82.0631,2.18,22.94,1111122 
SCCF RECON,ioos:station:SCCF:11:1,2017-11-09T08:00:00Z,26.4679,-82.0631,2.22,23.62,1111122 
SCCF RECON,ioos:station:SCCF:11:1,2017-11-09T09:00:00Z,26.4679,-82.0631,2.21,24.15,1111122 
SCCF RECON,ioos:station:SCCF:11:1,2017-11-09T10:00:00Z,26.4679,-82.0631,2.15,25.25,1111122 
SCCF RECON,ioos:station:SCCF:11:1,2017-11-09T11:00:00Z,26.4679,-82.0631,2.07,23.62,1111122 
SCCF RECON,ioos:station:SCCF:11:1,2017-11-09T12:00:00Z,26.4679,-82.0631,1.95,19.9,1111122 
SCCF RECON,ioos:station:SCCF:11:1,2017-11-09T13:00:00Z,26.4679,-82.0631,1.823,19.8,1111122 
SCCF RECON,ioos:station:SCCF:11:1,2017-11-09T14:00:00Z,26.4679,-82.0631,1.71,19.76,1111122 
SCCF RECON,ioos:station:SCCF:11:1,2017-11-09T15:00:00Z,26.4679,-82.0631,1.581,19.76,1111122 
SCCF RECON,ioos:station:SCCF:11:1,2017-11-09T16:00:00Z,26.4679,-82.0631,1.494,19.74,1111122 
SCCF RECON,ioos:station:SCCF:11:1,2017-11-09T17:00:00Z,26.4679,-82.0631,1.493,20.31,1111122 
SCCF RECON,ioos:station:SCCF:11:1,2017-11-09T18:00:00Z,26.4679,-82.0631,1.59,22.22,1111122 
SCCF RECON,ioos:station:SCCF:11:1,2017-11-09T19:00:00Z,26.4679,-82.0631,1.76,21.98,1111122 
SCCF RECON,ioos:station:SCCF:11:1,2017-11-09T20:00:00Z,26.4679,-82.0631,1.876,19.87,1111122 
SCCF RECON,ioos:station:SCCF:11:1,2017-11-09T21:00:00Z,26.4679,-82.0631,1.95,20.65,1111122 
SCCF RECON,ioos:station:SCCF:11:1,2017-11-09T22:00:00Z,26.4679,-82.0631,2.014,21.44,1111122 
SCCF RECON,ioos:station:SCCF:11:1,2017-11-10T05:00:00Z,26.4679,-82.0631,1.96,18.47,1111122 
SCCF RECON,ioos:station:SCCF:11:1,2017-11-10T06:00:00Z,26.4679,-82.0631,1.972,19.14,1111122 
SCCF RECON,ioos:station:SCCF:11:1,2017-11-10T07:00:00Z,26.4679,-82.0631,2.02,19.52,1111122 
SCCF RECON,ioos:station:SCCF:11:1,2017-11-10T08:00:00Z,26.4679,-82.0631,2.08,19.96,1111122 
SCCF RECON,ioos:station:SCCF:11:1,2017-11-10T09:00:00Z,26.4679,-82.0631,2.112,20.2,1111122 
SCCF RECON,ioos:station:SCCF:11:1,2017-11-10T10:00:00Z,26.4679,-82.0631,2.12,20.77,1111122 
SCCF RECON,ioos:station:SCCF:11:1,2017-11-10T11:00:00Z,26.4679,-82.0631,2.102,20.66,1111122 
SCCF RECON,ioos:station:SCCF:11:1,2017-11-10T12:00:00Z,26.4679,-82.0631,2.037,20.99,1111122 
SCCF RECON,ioos:station:SCCF:11:1,2017-11-10T13:00:00Z,26.4679,-82.0631,1.93,19.93,1111122 
SCCF RECON,ioos:station:SCCF:11:1,2017-11-10T14:00:00Z,26.4679,-82.0631,1.821,20.09,1111122 
SCCF RECON,ioos:station:SCCF:11:1,2017-11-10T15:00:00Z,26.4679,-82.0631,1.716,20.16,1111122 
SCCF RECON,ioos:station:SCCF:11:1,2017-11-10T16:00:00Z,26.4679,-82.0631,1.603,20.14,1111122 
SCCF RECON,ioos:station:SCCF:11:1,2017-11-10T17:00:00Z,26.4679,-82.0631,1.536,20.18,1111122 
SCCF RECON,ioos:station:SCCF:11:1,2017-11-10T18:00:00Z,26.4679,-82.0631,1.531,21.71,1111122 
SCCF RECON,ioos:station:SCCF:11:1,2017-11-10T19:00:00Z,26.4679,-82.0631,1.598,20.99,1111122 
SCCF RECON,ioos:station:SCCF:11:1,2017-11-10T20:00:00Z,26.4679,-82.0631,1.728,22.27,1111122 
SCCF RECON,ioos:station:SCCF:11:1,2017-11-10T21:00:00Z,26.4679,-82.0631,1.828,17.91,1111122 
SCCF RECON,ioos:station:SCCF:11:1,2017-11-10T22:00:00Z,26.4679,-82.0631,1.926,18.36,1111122 
SCCF RECON,ioos:station:SCCF:11:1,2017-11-11T05:00:00Z,26.4679,-82.0631,1.82,20.22,1111122 
SCCF RECON,ioos:station:SCCF:11:1,2017-11-11T06:00:00Z,26.4679,-82.0631,1.77,20.59,1111122 
SCCF RECON,ioos:station:SCCF:11:1,2017-11-11T07:00:00Z,26.4679,-82.0631,1.76,20.44,1111122 
SCCF RECON,ioos:station:SCCF:11:1,2017-11-11T08:00:00Z,26.4679,-82.0631,1.82,21.37,1111122 
SCCF RECON,ioos:station:SCCF:11:1,2017-11-11T09:00:00Z,26.4679,-82.0631,1.911,21.32,1111122 
SCCF RECON,ioos:station:SCCF:11:1,2017-11-11T10:00:00Z,26.4679,-82.0631,1.97,21.24,1111122 
SCCF RECON,ioos:station:SCCF:11:1,2017-11-11T11:00:00Z,26.4679,-82.0631,2.04,19.64,1111122 
SCCF RECON,ioos:station:SCCF:11:1,2017-11-11T12:00:00Z,26.4679,-82.0631,2.076,19.66,1111122 
SCCF RECON,ioos:station:SCCF:11:1,2017-11-11T13:00:00Z,26.4679,-82.0631,2.06,19.57,1111122 
SCCF RECON,ioos:station:SCCF:11:1,2017-11-11T14:00:00Z,26.4679,-82.0631,1.98,20.28,1111122 
SCCF RECON,ioos:station:SCCF:11:1,2017-11-11T15:00:00Z,26.4679,-82.0631,1.877,20.77,1111122 
SCCF RECON,ioos:station:SCCF:11:1,2017-11-11T16:00:00Z,26.4679,-82.0631,1.773,20.78,1111122 
SCCF RECON,ioos:station:SCCF:11:1,2017-11-11T17:00:00Z,26.4679,-82.0631,1.677,20.63,1111122 
SCCF RECON,ioos:station:SCCF:11:1,2017-11-11T18:00:00Z,26.4679,-82.0631,1.6,20.55,1111122 
SCCF RECON,ioos:station:SCCF:11:1,2017-11-11T19:00:00Z,26.4679,-82.0631,1.582,20.32,1111122 
SCCF RECON,ioos:station:SCCF:11:1,2017-11-11T20:00:00Z,26.4679,-82.0631,1.654,20.31,1111122 
SCCF RECON,ioos:station:SCCF:11:1,2017-11-11T21:00:00Z,26.4679,-82.0631,1.782,19.84,1111122 
SCCF RECON,ioos:station:SCCF:11:1,2017-11-11T22:00:00Z,26.4679,-82.0631,1.898,17.39,1111122 
SCCF RECON,ioos:station:SCCF:11:1,2017-11-12T05:00:00Z,26.4679,-82.0631,1.93,19.65,1111122 
SCCF RECON,ioos:station:SCCF:11:1,2017-11-12T06:00:00Z,26.4679,-82.0631,1.873,20.3,1111122 
SCCF RECON,ioos:station:SCCF:11:1,2017-11-12T07:00:00Z,26.4679,-82.0631,1.82,19.94,1111122 
SCCF RECON,ioos:station:SCCF:11:1,2017-11-12T08:00:00Z,26.4679,-82.0631,1.82,20.39,1111122 
SCCF RECON,ioos:station:SCCF:11:1,2017-11-12T09:00:00Z,26.4679,-82.0631,1.878,21.28,1111122 
SCCF RECON,ioos:station:SCCF:11:1,2017-11-12T10:00:00Z,26.4679,-82.0631,1.93,21.58,1111122 
SCCF RECON,ioos:station:SCCF:11:1,2017-11-12T11:00:00Z,26.4679,-82.0631,1.991,21.78,1111122 
SCCF RECON,ioos:station:SCCF:11:1,2017-11-12T12:00:00Z,26.4679,-82.0631,2.06,21.54,1111122 
SCCF RECON,ioos:station:SCCF:11:1,2017-11-12T13:00:00Z,26.4679,-82.0631,2.08,20.78,1111122 
SCCF RECON,ioos:station:SCCF:11:1,2017-11-12T14:00:00Z,26.4679,-82.0631,2.075,20.99,1111122 
SCCF RECON,ioos:station:SCCF:11:1,2017-11-12T15:00:00Z,26.4679,-82.0631,2.041,20.98,1111122 
SCCF RECON,ioos:station:SCCF:11:1,2017-11-12T16:00:00Z,26.4679,-82.0631,1.967,20.52,1111122 
SCCF RECON,ioos:station:SCCF:11:1,2017-11-12T17:00:00Z,26.4679,-82.0631,1.844,20.28,1111122 
SCCF RECON,ioos:station:SCCF:11:1,2017-11-12T18:00:00Z,26.4679,-82.0631,1.758,20.24,1111122 
SCCF RECON,ioos:station:SCCF:11:1,2017-11-12T19:00:00Z,26.4679,-82.0631,1.688,20.33,1111122 
SCCF RECON,ioos:station:SCCF:11:1,2017-11-12T20:00:00Z,26.4679,-82.0631,1.687,20.3,1111122 
SCCF RECON,ioos:station:SCCF:11:1,2017-11-12T21:00:00Z,26.4679,-82.0631,1.772,20.44,1111122 
SCCF RECON,ioos:station:SCCF:11:1,2017-11-12T22:00:00Z,26.4679,-82.0631,1.935,18.95,1111122 
SCCF RECON,ioos:station:SCCF:11:1,2017-11-13T05:00:00Z,26.4679,-82.0631,2.03,19.98,1111122 
SCCF RECON,ioos:station:SCCF:11:1,2017-11-13T06:00:00Z,26.4679,-82.0631,1.92,19.05,1111122 
SCCF RECON,ioos:station:SCCF:11:1,2017-11-13T07:00:00Z,26.4679,-82.0631,1.787,19.24,1111122 
SCCF RECON,ioos:station:SCCF:11:1,2017-11-13T08:00:00Z,26.4679,-82.0631,1.731,19.54,1111122 
SCCF RECON,ioos:station:SCCF:11:1,2017-11-13T09:00:00Z,26.4679,-82.0631,1.73,19.89,1111122 
SCCF RECON,ioos:station:SCCF:11:1,2017-11-13T10:00:00Z,26.4679,-82.0631,1.81,19.96,1111122 
SCCF RECON,ioos:station:SCCF:11:1,2017-11-13T11:00:00Z,26.4679,-82.0631,1.92,19.93,1111122 
SCCF RECON,ioos:station:SCCF:11:1,2017-11-13T12:00:00Z,26.4679,-82.0631,2.003,20.52,1111122 
SCCF RECON,ioos:station:SCCF:11:1,2017-11-13T13:00:00Z,26.4679,-82.0631,2.07,19.59,1111122 
SCCF RECON,ioos:station:SCCF:11:1,2017-11-13T14:00:00Z,26.4679,-82.0631,2.125,19.06,1111122 
SCCF RECON,ioos:station:SCCF:11:1,2017-11-13T15:00:00Z,26.4679,-82.0631,2.12,18.77,1111122 
SCCF RECON,ioos:station:SCCF:11:1,2017-11-13T16:00:00Z,26.4679,-82.0631,2.068,18.78,1111122 
SCCF RECON,ioos:station:SCCF:11:1,2017-11-13T17:00:00Z,26.4679,-82.0631,1.967,19.57,1111122 
SCCF RECON,ioos:station:SCCF:11:1,2017-11-13T18:00:00Z,26.4679,-82.0631,1.832,19.92,1111122 
SCCF RECON,ioos:station:SCCF:11:1,2017-11-13T19:00:00Z,26.4679,-82.0631,1.744,20.09,1111122 
SCCF RECON,ioos:station:SCCF:11:1,2017-11-13T20:00:00Z,26.4679,-82.0631,1.674,20.17,1111122 
SCCF RECON,ioos:station:SCCF:11:1,2017-11-13T21:00:00Z,26.4679,-82.0631,1.691,20.08,1111122 
SCCF RECON,ioos:station:SCCF:11:1,2017-11-13T23:00:00Z,26.4679,-82.0631,1.91,19.78,1111122 
SCCF RECON,ioos:station:SCCF:11:1,2017-11-14T05:00:00Z,26.4679,-82.0631,2.03,19.07,1111122 
SCCF RECON,ioos:station:SCCF:11:1,2017-11-14T06:00:00Z,26.4679,-82.0631,1.881,19.25,1111122 
SCCF RECON,ioos:station:SCCF:11:1,2017-11-14T07:00:00Z,26.4679,-82.0631,1.745,19.37,1111122 
SCCF RECON,ioos:station:SCCF:11:1,2017-11-14T08:00:00Z,26.4679,-82.0631,1.63,19.69,1111122 
SCCF RECON,ioos:station:SCCF:11:1,2017-11-14T09:00:00Z,26.4679,-82.0631,1.57,19.64,1111122 
SCCF RECON,ioos:station:SCCF:11:1,2017-11-14T10:00:00Z,26.4679,-82.0631,1.592,18.99,1111122 
SCCF RECON,ioos:station:SCCF:11:1,2017-11-14T11:00:00Z,26.4679,-82.0631,1.7,19.19,1111122 
SCCF RECON,ioos:station:SCCF:11:1,2017-11-14T12:00:00Z,26.4679,-82.0631,1.848,19.08,1111122 
SCCF RECON,ioos:station:SCCF:11:1,2017-11-14T13:00:00Z,26.4679,-82.0631,1.939,19.15,1111122 
SCCF RECON,ioos:station:SCCF:11:1,2017-11-14T14:00:00Z,26.4679,-82.0631,2.015,17.78,1111122 
SCCF RECON,ioos:station:SCCF:11:1,2017-11-14T15:00:00Z,26.4679,-82.0631,2.07,17.65,1111122 
SCCF RECON,ioos:station:SCCF:11:1,2017-11-14T16:00:00Z,26.4679,-82.0631,2.093,18.33,1111122 
SCCF RECON,ioos:station:SCCF:11:1,2017-11-14T17:00:00Z,26.4679,-82.0631,2.027,18.23,1111122 
SCCF RECON,ioos:station:SCCF:11:1,2017-11-14T18:00:00Z,26.4679,-82.0631,1.922,18.42,1111122 
SCCF RECON,ioos:station:SCCF:11:1,2017-11-14T19:00:00Z,26.4679,-82.0631,1.837,18.81,1111122 
SCCF RECON,ioos:station:SCCF:11:1,2017-11-14T20:00:00Z,26.4679,-82.0631,1.752,19.23,1111122 
SCCF RECON,ioos:station:SCCF:11:1,2017-11-14T21:00:00Z,26.4679,-82.0631,1.711,19.08,1111122 
SCCF RECON,ioos:station:SCCF:11:1,2017-11-14T22:00:00Z,26.4679,-82.0631,1.759,18.67,1111122 
SCCF RECON,ioos:station:SCCF:11:1,2017-11-15T05:00:00Z,26.4679,-82.0631,2.004,18.69,1111122 
SCCF RECON,ioos:station:SCCF:11:1,2017-11-15T06:00:00Z,26.4679,-82.0631,1.899,18.78,1111122 
SCCF RECON,ioos:station:SCCF:11:1,2017-11-15T07:00:00Z,26.4679,-82.0631,1.77,19.03,1111122 
SCCF RECON,ioos:station:SCCF:11:1,2017-11-15T08:00:00Z,26.4679,-82.0631,1.64,19.28,1111122 
SCCF RECON,ioos:station:SCCF:11:1,2017-11-15T09:00:00Z,26.4679,-82.0631,1.535,19.44,1111122 